Princeton, MN

7:39 PM CST on November 12, 2019 (GMT -0600)
Princeton Municipal

Weather History for KPNM - September, 2019

Change the Weather History Date:

Wednesday, September 4, 2019

  Actual Average Record
Temperature  
Mean Temperature 61 °F -  
Max Temperature 71 °F 75 °F 91 °F (2007)
Min Temperature 51 °F 52 °F 42 °F (2003)
Degree Days  
Heating Degree Days 4    
Growing Degree Days 11 (Base 50)    
Moisture  
Dew Point 51 °F    
Average Humidity 71    
Maximum Humidity 94    
Minimum Humidity 49    
Precipitation  
Precipitation 0.00 in - - ()
Sea Level Pressure  
Sea Level Pressure 30.13 in    
Wind  
Wind Speed 3 mph (WNW)    
Max Wind Speed 9 mph    
Max Gust Speed -    
Visibility 10 miles    
Events      
Averages and records for this station are not official NWS values.
T = Trace of Precipitation, MM = Missing Value Source: NWS Daily Summary

Daily Weather History Graph

Daily Weather History Graph

Search for Another Location

Airport or City:

Astronomy

Sep. 04, 2019 Rise Set
Actual Time 6:39 AM CDT 7:46 PM CDT
Civil Twilight 6:08 AM CDT 8:17 PM CDT
Nautical Twilight 5:32 AM CDT 8:53 PM CDT
Astronomical Twilight 4:53 AM CDT 9:32 PM CDT
Moon 12:58 PM CDT (9/4) 11:03 PM CDT (9/4)
Length of Visible Light 14h 08m
Length of Day
13h 07m
Waxing Crescent, 35% of the Moon is Illuminated
Sep 4
Waxing Crescent
Sep 5
First Quarter
Sep 13
Full
Sep 21
Last Quarter
Sep 28
New

Hourly Weather History & Observations

Time (CDT) Temp. Dew Point Humidity Pressure Visibility Wind Dir Wind Speed Gust Speed Precip Events Conditions
12:17 AM 59.0 °F 51.8 °F 77% 30.07 in 10.0 mi West 6.9 mph - N/A   Overcast
12:35 AM 59.0 °F 51.8 °F 77% 30.07 in 10.0 mi WNW 6.9 mph - N/A   Overcast
12:36 AM 59.0 °F 51.8 °F 77% 30.07 in 10.0 mi WNW 5.8 mph - N/A   Overcast
12:55 AM 59.0 °F 51.8 °F 77% 30.08 in 10.0 mi WNW 5.8 mph - N/A   Overcast
12:56 AM 59.0 °F 51.8 °F 77% 30.08 in 10.0 mi WNW 5.8 mph - N/A   Overcast
1:15 AM 59.0 °F 51.8 °F 77% 30.08 in 10.0 mi WNW 5.8 mph - N/A   Overcast
1:38 AM 59.0 °F 51.8 °F 77% 30.08 in 10.0 mi WNW 9.2 mph - N/A   Overcast
1:56 AM 59.0 °F 51.8 °F 77% 30.08 in 10.0 mi NW 4.6 mph - N/A   Overcast
2:15 AM 59.0 °F 51.8 °F 77% 30.08 in 10.0 mi NW 4.6 mph - N/A   Overcast
2:16 AM 59.0 °F 51.8 °F 77% 30.08 in 10.0 mi NW 4.6 mph - N/A   Overcast
2:35 AM 59.0 °F 51.8 °F 77% 30.08 in 10.0 mi NW 6.9 mph - N/A   Overcast
2:59 AM 57.2 °F 51.8 °F 82% 30.09 in 10.0 mi NW 4.6 mph - N/A   Overcast
3:17 AM 57.2 °F 51.8 °F 82% 30.09 in 10.0 mi NW 5.8 mph - N/A   Overcast
3:35 AM 57.2 °F 50.0 °F 77% 30.09 in 10.0 mi WNW 3.5 mph - N/A   Overcast
3:55 AM 57.2 °F 50.0 °F 77% 30.10 in 10.0 mi WNW 3.5 mph - N/A   Overcast
3:56 AM 57.2 °F 50.0 °F 77% 30.10 in 10.0 mi WNW 4.6 mph - N/A   Overcast
4:15 AM 55.4 °F 50.0 °F 82% 30.10 in 10.0 mi WNW 3.5 mph - N/A   Overcast
4:20 AM 55.4 °F 50.0 °F 82% 30.11 in 10.0 mi NW 3.5 mph - N/A   Overcast
4:37 AM 55.4 °F 50.0 °F 82% 30.11 in 10.0 mi Calm Calm - N/A   Overcast
4:56 AM 55.4 °F 50.0 °F 82% 30.12 in 10.0 mi Calm Calm - N/A   Overcast
5:15 AM 55.4 °F 50.0 °F 82% 30.12 in 10.0 mi Calm Calm - N/A   Overcast
5:16 AM 55.4 °F 50.0 °F 82% 30.12 in 10.0 mi Calm Calm - N/A   Overcast
5:35 AM 55.4 °F 48.2 °F 77% 30.13 in 10.0 mi Calm Calm - N/A   Overcast
5:36 AM 55.4 °F 48.2 °F 77% 30.13 in 10.0 mi Calm Calm - N/A   Overcast
5:59 AM 53.6 °F 48.2 °F 82% 30.14 in 10.0 mi Calm Calm - N/A   Overcast
6:17 AM 53.6 °F 48.2 °F 82% 30.15 in 10.0 mi Calm Calm - N/A   Overcast
6:36 AM 53.6 °F 48.2 °F 82% 30.16 in 10.0 mi Calm Calm - N/A   Overcast
6:55 AM 53.6 °F 48.2 °F 82% 30.17 in 10.0 mi WNW 3.5 mph - N/A   Overcast
7:15 AM 51.8 °F 48.2 °F 88% 30.18 in 10.0 mi Calm Calm - N/A   Overcast
7:20 AM 51.8 °F 48.2 °F 88% 30.18 in 10.0 mi Calm Calm - N/A   Overcast
7:38 AM 53.6 °F 48.2 °F 82% 30.19 in 10.0 mi Calm Calm - N/A   Overcast
7:56 AM 53.6 °F 48.2 °F 82% 30.19 in 10.0 mi Calm Calm - N/A   Overcast
8:15 AM 55.4 °F 48.2 °F 77% 30.20 in 10.0 mi NW 3.5 mph - N/A   Overcast
8:35 AM 57.2 °F 50.0 °F 77% 30.19 in 10.0 mi NNW 3.5 mph - N/A   Overcast
8:59 AM 57.2 °F 50.0 °F 77% 30.19 in 10.0 mi North 4.6 mph - N/A   Scattered Clouds
9:16 AM 59.0 °F 50.0 °F 72% 30.19 in 10.0 mi North 4.6 mph - N/A   Clear
9:35 AM 60.8 °F 50.0 °F 68% 30.19 in 10.0 mi NNW 3.5 mph - N/A   Clear
9:36 AM 60.8 °F 50.0 °F 68% 30.19 in 10.0 mi North 3.5 mph - N/A   Clear
9:55 AM 60.8 °F 50.0 °F 68% 30.19 in 10.0 mi NNE 3.5 mph - N/A   Clear
9:56 AM 60.8 °F 50.0 °F 68% 30.19 in 10.0 mi NNE 4.6 mph - N/A   Clear
10:15 AM 62.6 °F 48.2 °F 59% 30.19 in 10.0 mi NNE 3.5 mph - N/A   Scattered Clouds
10:38 AM 62.6 °F 48.2 °F 59% 30.19 in 10.0 mi NNW 3.5 mph - N/A   Clear
10:55 AM 62.6 °F 48.2 °F 59% 30.19 in 10.0 mi Calm Calm - N/A   Clear
10:56 AM 62.6 °F 48.2 °F 59% 30.19 in 10.0 mi Calm Calm - N/A   Clear
11:15 AM 64.4 °F 48.2 °F 56% 30.19 in 10.0 mi Calm Calm - N/A   Scattered Clouds
11:26 AM 64.4 °F 50.0 °F 59% 30.19 in 10.0 mi WNW 3.5 mph - N/A   Mostly Cloudy
11:35 AM 64.4 °F 50.0 °F 59% 30.19 in 10.0 mi West 3.5 mph - N/A   Mostly Cloudy
11:55 AM 64.4 °F 48.2 °F 56% 30.19 in 10.0 mi Calm Calm - N/A   Scattered Clouds
12:15 PM 66.2 °F 48.2 °F 52% 30.19 in 10.0 mi SW 4.6 mph - N/A   Scattered Clouds
12:19 PM 66.2 °F 48.2 °F 52% 30.19 in 10.0 mi Calm Calm - N/A   Scattered Clouds
12:38 PM 66.2 °F 48.2 °F 52% 30.19 in 10.0 mi Calm Calm - N/A   Clear
12:56 PM 66.2 °F 48.2 °F 52% 30.18 in 10.0 mi South 3.5 mph - N/A   Scattered Clouds
1:15 PM 68.0 °F 50.0 °F 52% 30.18 in 10.0 mi South 5.8 mph - N/A   Clear
1:35 PM 68.0 °F 48.2 °F 49% 30.17 in 10.0 mi South 5.8 mph - N/A   Clear
1:59 PM 69.8 °F 50.0 °F 49% 30.17 in 10.0 mi SSW 4.6 mph - N/A   Clear
2:18 PM 68.0 °F 50.0 °F 52% 30.17 in 10.0 mi SSW 3.5 mph - N/A   Clear
2:36 PM 69.8 °F 50.0 °F 49% 30.16 in 10.0 mi West 3.5 mph - N/A   Clear
2:55 PM 69.8 °F 50.0 °F 49% 30.15 in 10.0 mi SSE 3.5 mph - N/A   Clear
3:15 PM 71.6 °F 51.8 °F 50% 30.16 in 10.0 mi West 3.5 mph - N/A   Clear
3:35 PM 69.8 °F 51.8 °F 53% 30.15 in 10.0 mi Calm Calm - N/A   Clear
3:36 PM 69.8 °F 51.8 °F 53% 30.15 in 10.0 mi Calm Calm - N/A   Clear
3:55 PM 69.8 °F 51.8 °F 53% 30.14 in 10.0 mi Calm Calm - N/A   Clear
3:56 PM 69.8 °F 51.8 °F 53% 30.14 in 10.0 mi WSW 4.6 mph - N/A   Clear
4:15 PM 69.8 °F 51.8 °F 53% 30.13 in 10.0 mi Calm Calm - N/A   Clear
4:20 PM 71.6 °F 51.8 °F 50% 30.13 in 10.0 mi WNW 3.5 mph - N/A   Clear
4:38 PM 71.6 °F 51.8 °F 50% 30.12 in 10.0 mi Calm Calm - N/A   Clear
4:56 PM 71.6 °F 51.8 °F 50% 30.13 in 10.0 mi WSW 4.6 mph - N/A   Clear
5:15 PM 71.6 °F 51.8 °F 50% 30.12 in 10.0 mi South 3.5 mph - N/A   Clear
5:35 PM 69.8 °F 51.8 °F 53% 30.12 in 10.0 mi Calm Calm - N/A   Clear
5:59 PM 69.8 °F 50.0 °F 49% 30.12 in 10.0 mi Calm Calm - N/A   Clear
6:17 PM 69.8 °F 51.8 °F 53% 30.11 in 10.0 mi SSE 4.6 mph - N/A   Clear
6:35 PM 69.8 °F 51.8 °F 53% 30.11 in 10.0 mi SSE 3.5 mph - N/A   Clear
6:55 PM 66.2 °F 53.6 °F 64% 30.11 in 10.0 mi South 3.5 mph - N/A   Clear
7:15 PM 66.2 °F 53.6 °F 64% 30.11 in 10.0 mi Calm Calm - N/A   Clear
7:38 PM 62.6 °F 53.6 °F 72% 30.12 in 10.0 mi Calm Calm - N/A   Clear
7:56 PM 62.6 °F 53.6 °F 72% 30.12 in 10.0 mi Calm Calm - N/A   Clear
8:15 PM 59.0 °F 53.6 °F 82% 30.12 in 10.0 mi Calm Calm - N/A   Clear
8:35 PM 57.2 °F 53.6 °F 88% 30.12 in 10.0 mi Calm Calm - N/A   Clear
8:59 PM 55.4 °F 51.8 °F 88% 30.11 in 10.0 mi North - - N/A   Clear
9:17 PM 55.4 °F 53.6 °F 94% 30.11 in 10.0 mi Calm Calm - N/A   Clear
9:35 PM 57.2 °F 53.6 °F 88% 30.11 in 10.0 mi Calm Calm - N/A   Clear
9:36 PM 57.2 °F 53.6 °F 88% 30.11 in 10.0 mi Calm Calm - N/A   Clear
9:55 PM 55.4 °F 53.6 °F 94% 30.11 in 10.0 mi Calm Calm - N/A   Clear
9:56 PM 55.4 °F 53.6 °F 94% 30.11 in 10.0 mi Calm Calm - N/A   Clear
10:15 PM 55.4 °F 53.6 °F 94% 30.11 in 10.0 mi Calm Calm - N/A   Clear
10:38 PM 55.4 °F 53.6 °F 94% 30.10 in 10.0 mi Calm Calm - N/A   Clear
10:56 PM 55.4 °F 53.6 °F 94% 30.09 in 10.0 mi SE 3.5 mph - N/A   Clear
11:15 PM 53.6 °F 51.8 °F 94% 30.09 in 10.0 mi Calm Calm - N/A   Clear
11:16 PM 53.6 °F 51.8 °F 94% 30.09 in 10.0 mi Calm Calm - N/A   Clear
11:35 PM 55.4 °F 51.8 °F 88% 30.09 in 10.0 mi Calm Calm - N/A   Clear
11:58 PM 53.6 °F 51.8 °F 94% 30.09 in 10.0 mi Calm Calm - N/A   Clear